Find Starlink 3789

NORAD ID: 52283 Int'l Des: 2022-041 Owner: SPXS Country: US Constellation: starlink operational
LEOCIRCULAR

リアルタイム位置

3D地球を読み込み中...

Starlink 3789について

説明を読み込み中...

次回通過

Passes for default location (London). Set your location on the main map for personalized predictions.

高度履歴

Loading altitude history...

軌道要素

1 52283U 22041Y 26126.95535171 -.00000097 00000-0 11951-4 0 9990
2 52283 53.2182 207.5536 0000886 76.5285 283.5806 15.08848219223168
Epoch: May 6, 2026 • Age: 15 hours

現在のステータス

高度 540.0 km
速度 7.60 km/s
衛星直下点 20.03°N, 65.19°W
打ち上げ日 Apr 21, 2022
運用期間 4 years
タイプ internet

技術仕様

分類 Payload
質量 297.00 kg
乾燥質量 275.00 kg
総質量 297.00 kg
長さ 0.20 m
直径 2.80 m
スパン 9.00 m
形状 Box + pan
製造者 SPXS
バスタイプ Starlink
フェーズステータス In Orbit
所有者/国 SPXS/US

Most Searched